Location: Brookfield Manor Mobile Home Park
(33.6853°N, 117.9567°W)
Time: 03:30:47
(UTC+00:00)

Daily predictions for brighter satellites

Satellite Brightness Start Highest point End
(mag) Time Altitude Azimuth Time Altitude Azimuth Time Altitude Azimuth
Okean-O 3.5 03:21:08 10° S 03:25:27 54° W 03:29:48 10° NNW
Cosmos 1869 4.2 03:25:02 10° NNE 03:28:25 29° E 03:31:47 10° SE
Cosmos 1825 3.2 03:26:00 10° SSE 03:29:07 25° E 03:32:15 10° NE
Cosmos 2058 4.4 03:26:23 10° SE 03:29:17 19° E 03:32:11 10° NE
NOSS 3-2 (A) 4.3 03:23:44 10° NNW 03:31:41 77° ENE 03:40:27 10° SE
OBJECT-B 0.9 03:29:12 10° SSE 03:32:19 55° ENE 03:35:28 10° N
USA 306 4.2 03:29:12 10° NNW 03:32:58 30° NE 03:36:43 10° E
SAR-Lupe-1 4.0 03:29:57 10° NNE 03:33:30 61° ESE 03:37:00 10° S
SAR-Lupe-4 3.7 03:30:25 10° NNE 03:33:56 52° E 03:37:24 10° S
COSMOS 2406 3.6 03:29:00 10° S 03:34:16 41° ESE 03:39:34 10° NE
Cosmos 405 Rocket 2.7 03:32:14 10° S 03:36:03 86° E 03:40:00 10° N
Cosmos 2034 Rocket 4.2 03:30:32 10° N 03:36:46 78° W 03:43:02 10° S
SL-19 R/B 4.1 03:34:01 10° SSE 03:37:02 50° ENE 03:40:28 10° N
SJ-6B 2.8 03:33:57 10° SSE 03:37:36 56° ENE 03:41:16 10° N
Meteor 1-27 4.3 03:33:59 10° N 03:39:45 69° E 03:45:31 10° SSE
NOSS 3-4 (A) 3.6 03:36:57 10° SW 03:42:42 76° WNW 03:48:44 10° NNE
NOSS 3-4 (C) 3.5 03:37:04 10° SW 03:42:48 77° WNW 03:48:51 10° NNE
OAO 1 Rocket 4.4 03:38:09 10° WSW 03:43:30 74° SSE 03:48:50 10° E
Atlas Centaur 2 2.6 03:42:12 10° SSW 03:45:16 20° SSE 03:47:12 14° ESE
Cosmos 1437 Rocket 3.5 03:42:59 10° NNE 03:46:31 34° ENE 03:49:36 13° SE
USA 32 4.3 03:41:36 10° N 03:46:39 47° E 03:51:41 10° SSE
BREEZE M DEB (TANK) 3.2 03:46:17 10° S 03:47:58 19° ESE 03:51:27 10° ENE
Cosmos 1656 4.3 03:43:19 10° N 03:48:37 41° ENE 03:53:01 14° SE
Cosmos 1408 2.7 03:45:39 10° S 03:49:17 78° W 03:52:56 10° N
Resurs 01 Rocket 3.0 03:46:24 13° ESE 03:49:18 23° ENE 03:52:50 10° NNE
Cosmos 1980 Rocket 4.3 03:49:35 10° NE 03:50:37 10° NE 03:51:39 10° ENE
ATLAS 2AS CENTAUR R/B 3.0 03:43:30 10° SSW 03:51:15 65° ESE 03:59:01 10° NE
CZ-4 R/B 4.4 03:51:14 10° WSW 03:53:15 13° W 03:55:17 10° WNW
RESURS DK-1 3.6 03:53:35 13° SSE 03:56:09 22° ESE 03:59:21 10° NE
Cosmos 1825 Rocket 4.1 03:52:11 10° SSW 03:56:28 61° W 04:00:45 10° N
NOSS 3-2 (C) 4.3 03:50:52 10° NNW 03:58:46 71° ENE 04:06:18 15° SE
Cosmos-2242 3.2 03:55:35 10° N 03:59:50 72° W 04:04:03 10° S
OAO 3 Copernicus 4.2 03:55:12 10° WSW 04:00:13 82° SSE 04:05:16 10° E
H-2A R/B 2.4 03:49:22 10° WSW 04:00:20 41° S 04:02:15 20° SE
Cosmos 1633 4.1 04:03:08 17° E 04:03:22 17° E 04:05:48 10° NE
Cosmos 44 Rocket 3.3 04:06:42 10° SSW 04:11:48 77° ESE 04:17:02 10° NNE
ERS-2 2.4 04:12:57 10° N 04:16:35 68° WNW 04:20:11 10° SSW
USA 267 3.5 04:11:10 10° ENE 04:17:18 42° SE 04:23:23 10° SSW
CENTAUR R/B 3.4 04:08:54 10° NNW 04:17:26 78° WSW 04:25:03 16° SSE
Helios 1A Rocket 4.0 04:14:17 10° S 04:18:04 41° W 04:21:55 10° NNW
Sakura Rocket 4.4 04:10:18 10° W 04:18:56 59° S 04:23:06 23° ESE
Meteor 2-2 Rocket 4.4 04:13:46 10° N 04:19:27 56° E 04:23:03 22° SSE
Cosmos 1634 Rocket 4.2 04:15:32 10° N 04:21:47 75° W 04:27:59 10° S
Ariane Rocket 3.0 04:17:44 15° SSE 04:21:57 89° WSW 04:27:03 10° NNW
IRS-1A Rocket 4.3 04:21:09 13° S 04:26:07 78° WSW 04:31:40 10° NNW
Cosmos 1242 Rocket 2.4 04:22:54 10° N 04:26:30 75° E 04:27:49 36° SSE
SEDSat Delta rocket 2.9 04:24:41 10° WSW 04:28:37 53° S 04:29:54 37° ESE
Cosmos 783 Rocket 4.5 04:23:31 10° SSW 04:28:42 86° WNW 04:33:55 10° NNE
OAO 2 Rocket 3.3 04:24:32 10° W 04:29:35 81° N 04:32:23 26° E
CZ-2C R/B 3.9 04:25:41 10° NNE 04:30:04 48° E 04:31:53 30° SSE
Cosmos 2221 2.7 04:27:36 10° N 04:31:48 50° E 04:33:02 37° SE
USA 307 2.8 04:27:58 10° NW 04:32:14 89° SW 04:33:45 39° SE
USA 238 DEB 4.3 04:25:06 10° NW 04:32:24 62° WSW 04:38:15 18° S
USA 238 4.3 04:25:12 10° NW 04:32:30 62° WSW 04:38:20 18° S
IGS 5A 3.5 04:40:41 33° S 04:42:28 79° W 04:46:37 10° NNW
Hubble Space Telescope 1.4 04:38:58 10° WSW 04:42:35 38° S 04:42:35 38° S
Terra 3.7 04:43:36 15° ENE 04:43:47 15° ENE 04:46:23 10° NNE
Cosmos 1606 2.9 04:42:36 10° N 04:46:13 48° E 04:46:13 48° E
USA 305 3.3 04:44:47 10° NW 04:48:52 53° SW 04:49:46 43° S
USA 308 3.1 04:44:53 10° NW 04:49:04 60° SW 04:49:57 47° S
Cosmos 1697 Rocket 2.7 04:43:35 10° NNW 04:49:14 69° ENE 04:51:14 40° SE
Cosmos 2082 Rocket 2.3 04:45:15 10° SSW 04:50:51 78° WNW 04:56:31 10° NNE
SPOT 3 Rocket 3.5 04:50:07 35° SSE 04:52:26 88° W 04:57:40 10° NNW
Cosmos 1833 Rocket 4.4 04:49:32 10° SW 04:54:34 33° WNW 04:59:37 10° N
Cosmos 2151 3.2 05:00:21 51° ENE 05:00:21 51° ENE 05:04:04 10° NNE
Cosmos 1842 Rocket 4.2 05:08:14 10° NNW 05:12:36 53° W 05:13:42 42° SW
USA 306 4.1 05:09:05 10° WNW 05:12:50 31° SW 05:12:59 30° SW
GP-B 3.8 05:08:55 10° NNE 05:12:19 40° NE 05:12:19 40° NE
Cosmos 1092 Rocket 3.9 05:13:57 50° SSE 05:15:31 69° E 05:21:45 10° NNE
Cosmos 1076 Rocket 4.4 05:16:19 33° SW 05:17:48 46° W 05:21:59 10° N
Meteor 2-3 Rocket 3.6 05:18:41 63° SE 05:19:21 69° E 05:25:00 10° NNE
ERS-1 Rocket 3.2 05:20:52 53° ENE 05:20:52 53° ENE 05:25:43 10° N
Spot 2 Rocket 3.3 05:21:57 74° SSE 05:22:24 85° ENE 05:27:33 10° NNW
Cosmos 2369 3.6 05:18:47 10° NNW 05:24:27 84° WSW 05:25:15 67° S
Resurs 01 Rocket 3.5 05:23:58 20° SW 05:25:38 25° W 05:29:18 10° NW
OAO 1 Rocket 4.5 05:23:55 10° W 05:29:16 76° N 05:29:57 65° ENE
Cosmos 2026 Rocket 3.9 05:33:39 64° SSE 05:34:39 79° E 05:41:00 10° N
Cosmos 1980 Rocket 2.0 05:29:45 10° NNW 05:35:24 85° ENE 05:35:38 82° SE
Cosmos 158 Rocket 4.1 05:37:56 61° WSW 05:38:31 68° WNW 05:43:42 10° NNE
Cosmos 1627 Rocket 4.4 05:39:18 63° S 05:40:28 89° W 05:46:50 10° N
Cosmos 2322 Rocket 4.0 05:38:54 10° NNE 05:42:47 19° ENE 05:42:47 19° ENE
ARIANE 5 R/B 3.6 05:53:39 45° WNW 05:53:39 45° WNW 05:57:16 10° NNW
Cosmos 2292 Rocket 4.4 05:59:37 67° NNE 05:59:37 67° NNE 06:05:27 10° N
USA 267 4.1 05:54:03 10° NNE 06:00:15 48° NW 06:06:28 10° WSW
SPOT 5 3.9 06:02:35 38° NW 06:02:35 38° NW 06:05:34 10° NNW
ATLAS 3B R/B 2.7 05:59:31 10° NNW 06:06:46 80° ENE 06:07:15 76° ESE
SL-16 R/B 3.1 06:02:55 10° N 06:07:23 38° NE 06:07:23 38° NE
Cosmos 1553 Rocket 4.2 06:12:56 10° N 06:18:05 63° NNE 06:18:05 63° NNE
Terra 3.1 06:22:29 37° NW 06:22:29 37° NW 06:25:41 10° NNW
USA 234 4.4 06:28:20 30° ENE 06:29:57 34° NE 06:35:44 10° NNW
S3M 4.4 06:40:07 10° N 06:45:17 60° N 06:45:17 60° N
Cosmos 2333 Rocket 4.2 06:48:21 10° NNE 06:51:37 19° NE 06:51:37 19° NE
Cosmos 2360 Rocket 3.5 06:52:53 10° N 06:56:30 35° NNE 06:56:30 35° NNE
Cosmos 2322 Rocket 3.8 07:21:42 10° NNW 07:24:34 29° NW 07:24:34 29° NW
COSMOS 2428 4.2 07:44:47 10° N 07:48:18 31° NNE 07:48:18 31° NNE
SL-16 R/B 4.5 07:47:45 10° NW 07:49:14 16° WNW 07:49:14 16° WNW
Cosmos 2219 Rocket 3.7 07:49:46 10° N 07:52:56 33° N 07:52:56 33° N
COSMOS 2455 4.2 08:10:42 34° NNW 08:10:42 34° NNW 08:14:59 10° N
USA 234 4.4 08:15:40 33° WNW 08:15:40 33° WNW 08:19:08 10° NW
Lacrosse 5 4.1 08:37:07 20° NE 08:37:07 20° NE 08:38:41 10° NE
ATLAS 5 CENTAUR R/B 3.6 08:30:17 10° NNW 08:35:45 38° NE 08:35:47 38° NE
Cosmos 2333 Rocket 4.0 08:31:26 10° NNW 08:33:35 23° NW 08:33:35 23° NW
SL-16 R/B 4.1 08:45:15 25° E 08:46:16 27° ENE 08:51:15 10° NNE
Resurs 1-4 Rocket 3.9 08:41:43 10° NNE 08:44:30 26° ENE 08:44:30 26° ENE
Cosmos 2297 Rocket 3.3 09:00:40 41° N 09:00:40 41° N 09:04:22 10° NNE
Cosmos 2227 Rocket 3.1 09:11:21 45° N 09:11:21 45° N 09:15:13 10° NNE
Cosmos 2237 Rocket 3.2 09:04:11 10° NNW 09:08:08 44° N 09:08:08 44° N
ADEOS Rocket 4.1 09:16:08 31° E 09:16:50 32° ENE 09:21:40 10° N
USA 229 DEB 4.2 09:11:54 10° NW 09:17:55 58° WNW 09:17:55 58° WNW
USA 229 4.2 09:12:00 10° NW 09:18:04 59° WNW 09:18:04 59° WNW
CZ-2D R/B 2.9 09:19:44 10° NNE 09:23:40 50° NNE 09:23:40 50° NNE
ADEOS II 3.4 09:21:46 10° NNE 09:25:41 34° ENE 09:25:41 34° ENE
Cosmos 2181 Rocket 4.2 09:22:35 10° N 09:28:07 69° N 09:28:07 69° N
SL-16 R/B 3.6 09:28:35 10° N 09:33:41 33° ENE 09:35:34 27° E
Cosmos 2263 Rocket 3.7 09:36:12 28° E 09:36:12 28° E 09:40:44 10° NE
NOSS 3-1 (A) 4.4 09:32:05 10° NW 09:38:44 52° W 09:38:44 52° W
ATLAS 2A CENTAUR R/B 3.9 09:51:02 57° S 09:51:23 57° SSE 10:16:42 10° E
Helios 1B rocket 4.2 09:49:10 10° N 09:51:15 29° N 09:51:15 29° N
Meteor 2-12 Rocket 4.4 10:00:55 70° WNW 10:00:55 70° WNW 10:06:43 10° N
BREEZE-M DEB (TANK) 4.4 10:03:48 34° NW 10:06:05 88° SW 10:26:03 10° SE
Nadezhda 3 Rocket 4.3 10:02:58 10° N 10:09:16 63° E 10:11:14 43° SE
Cosmos 2327 Rocket 4.3 10:10:32 77° S 10:11:04 89° E 10:17:15 10° N
CZ-3B R/B 4.4 10:12:02 40° S 10:12:52 41° S 10:19:59 10° ESE
Cosmos 2251 Rocket 4.4 10:17:02 38° NW 10:17:02 38° NW 10:21:20 10° N
CBERS-1 4.2 10:11:28 10° NNE 10:16:33 64° E 10:16:46 63° ESE
Cosmos 2344 3.4 10:14:50 56° SSW 10:16:38 82° ESE 10:24:07 10° NNE
IDEFIX/ARIANE 42P 2.7 10:11:44 10° NNE 10:16:52 62° E 10:17:13 60° ESE
Cosmos 1378 Rocket 4.3 10:12:43 10° N 10:16:54 46° E 10:16:54 46° E
Lacrosse 5 3.7 10:16:19 20° NW 10:16:59 20° NW 10:20:45 10° N
Cosmos 2082 4.5 10:18:14 39° WNW 10:18:14 39° WNW 10:23:24 10° N
Cosmos 1908 Rocket 4.2 10:19:31 50° ENE 10:19:31 50° ENE 10:23:25 10° NNE
Cosmos 1356 Rocket 4.2 10:20:55 48° NE 10:20:55 48° NE 10:23:59 10° NNE
ATLAS 5 CENTAUR R/B 3.9 10:14:50 10° NW 10:17:13 23° WNW 10:17:13 23° WNW
Resurs 1-4 Rocket 3.5 10:21:52 10° NNW 10:25:34 24° WNW 10:25:34 24° WNW
Cosmos 1733 Rocket 4.4 10:27:31 31° NW 10:27:31 31° NW 10:30:20 10° N
SL-16 R/B 3.1 10:30:20 39° W 10:30:20 39° W 10:35:20 10° NNW
DELTA 2 DEB (DPAF) 4.3 10:30:51 62° ESE 10:31:15 66° ENE 10:35:38 10° N
SL-8 R/B 4.3 10:31:08 45° NW 10:31:24 46° NNW 10:36:02 10° NE
Cosmos 1190 Rocket 3.9 10:31:49 69° SSE 10:32:24 79° ESE 10:37:42 10° NNE
USA 215 3.7 10:27:00 10° NE 10:33:20 51° SE 10:35:19 39° S
Centaur AC-112 4.2 10:33:53 36° SSE 10:34:22 36° SSE 10:47:28 10° E
Cosmos 1295 Rocket 4.4 10:33:38 58° WSW 10:34:25 63° W 10:40:30 10° N
Cosmos 1140 Rocket 3.3 10:34:56 73° WSW 10:35:16 76° WNW 10:40:31 10° NNE
Cosmos 2154 Rocket 4.1 10:35:29 50° W 10:36:03 52° W 10:42:05 10° N
ASTRO E2 4.0 10:40:23 31° ESE 10:40:23 31° ESE 10:42:44 10° E
CZ-4C R/B 4.4 10:40:07 29° SE 10:41:41 44° ENE 10:45:40 10° N
Okean 2 3.4 10:41:19 10° N 10:45:10 74° NW 10:45:10 74° NW
Meteor 1-21 4.2 10:40:13 10° N 10:46:01 83° W 10:48:10 41° S
Cosmos 1954 Rocket 4.3 10:44:57 43° SSE 10:46:32 64° ESE 10:51:48 10° NNE
CZ-4B R/B 4.2 10:43:56 10° NNE 10:48:31 43° E 10:50:38 27° SSE
Meteor 1-28 Rocket 4.3 10:51:21 32° NW 10:51:21 32° NW 10:53:37 10° NNW
MSX 3.7 10:45:31 10° NNE 10:51:16 86° WNW 10:53:13 44° SSW
IRS-P3 Rocket 4.5 10:47:07 10° N 10:52:23 80° WNW 10:53:49 50° SSW
ARIANE 5 R/B 2.8 10:48:32 10° NNE 10:53:40 63° ESE 10:56:00 32° S
CZ-2D R/B 4.4 10:53:47 10° NNE 10:57:37 42° E 10:59:15 28° SSE
Cosmos 1782 Rocket 3.4 11:00:41 52° S 11:01:43 87° E 11:06:05 10° N
ADEOS Rocket 3.9 11:03:05 26° W 11:03:05 26° W 11:06:56 10° NW
Cosmos 1805 4.1 11:01:49 28° SSE 11:03:25 45° E 11:07:08 10° NNE
CZ-2D R/B 4.3 11:02:59 10° NW 11:04:27 11° WNW 11:04:59 11° WNW
ADEOS II 3.4 11:01:59 10° NNW 11:06:00 23° WNW 11:06:37 22° WNW
Cosmos 1959 Rocket 4.5 11:02:30 25° S 11:06:13 82° E 11:12:24 10° N
ATLAS CENTAUR R/B 1.5 11:09:58 46° WNW 11:10:10 47° WNW 11:13:55 10° NNE
IUS-17 SRM-1 3.9 11:11:22 34° S 11:11:22 34° S 11:13:41 10° SE
SL-8 Rocket 3.9 11:09:37 31° SSW 11:12:43 70° W 11:18:52 10° N
KORONAS-FOTON 4.3 11:09:01 10° N 11:12:54 61° E 11:15:43 17° SSE
Cosmos 676 Rocket 4.0 11:12:58 37° SW 11:15:04 70° WNW 11:20:25 10° NNE
IRS-1C 4.2 11:10:10 10° N 11:15:26 62° WNW 11:17:43 33° SW
Cosmos 2366 rocket 4.0 11:11:29 24° S 11:15:32 83° W 11:21:55 10° N
Iridium 45 4.5 11:15:44 57° WSW 11:15:59 59° W 11:19:27 10° N
SL-16 R/B 3.1 11:12:54 10° NW 11:17:20 27° W 11:17:20 27° W
Delta 142 4.4 11:16:04 33° WSW 11:18:19 48° S 11:23:10 10° ESE
Cosmos 2263 Rocket 3.1 11:17:54 27° W 11:19:44 34° WNW 11:24:52 10° N
Cosmos 1707 3.4 11:16:53 10° NNW 11:20:12 36° W 11:20:12 36° W
PAYLOAD A 4.2 11:21:37 10° NNE 11:27:02 76° ESE 11:31:26 15° S
Spot 1 3.9 11:25:21 24° S 11:27:42 60° WSW 11:31:46 10° NNW
Cosmos 1733 3.1 11:27:50 27° S 11:29:51 90° E 11:33:42 10° N
ALOS 3.3 11:25:33 10° NNE 11:30:00 43° E 11:34:25 10° S
GEOS 3 Rocket 4.3 11:25:51 10° SE 11:31:06 59° NE 11:36:21 10° NNW
Cosmos 1766 3.4 11:29:45 18° S 11:32:29 70° E 11:36:22 10° NNE
Cosmos 1741 Rocket 4.5 11:29:58 13° S 11:34:35 59° ESE 11:39:45 10° NNE
SL-08 R/B 3.3 11:31:13 10° S 11:36:08 80° WSW 11:41:06 10° NNW
CZ-4C R/B 3.1 11:28:51 10° NNW 11:36:38 82° WSW 11:45:18 10° SSE
Delta 128 4.1 11:34:57 28° SW 11:36:47 42° S 11:41:28 10° ESE
Meteor 2-20 4.4 11:33:11 10° NNW 11:39:18 71° W 11:45:25 10° S
Cosmos 2218 Rocket 4.3 11:37:15 20° SSW 11:41:27 49° W 11:47:35 10° N
Cosmos 1300 Rocket 3.4 11:38:50 18° SSW 11:42:00 77° W 11:46:21 10° N
Meteor 2-20 Rocket 4.5 11:37:51 10° N 11:44:01 89° E 11:50:11 10° S
Meteor 1-15 Rocket 4.3 11:43:11 12° SSW 11:48:45 73° W 11:54:39 10° N
Cosmos 1484 Rocket 4.0 11:46:48 10° NNE 11:50:34 41° E 11:54:21 10° S
Cosmos 1340 3.1 11:48:18 10° NNW 11:51:50 40° W 11:54:37 15° SSW
Cosmos 1975 Rocket 3.3 11:47:39 10° NNW 11:51:53 48° W 11:56:03 10° SSW
Cosmos 1727 Rocket 4.0 11:46:36 10° N 11:52:52 88° W 11:59:09 10° S
Cosmos 1400 Rocket 3.4 11:51:48 21° SW 11:53:44 35° WNW 11:57:20 10° N
Cosmos 1626 2.1 11:52:00 10° NNW 11:55:39 62° W 11:59:16 10° S
IDEFIX/ARIANE 42P 4.5 11:53:23 10° NW 11:55:52 14° WNW 11:58:01 11° W
